Home > Weather > Calgary > Past weeks

Flag for Canada Past Weather in Calgary, Alberta, Canada — Yesterday and Last 2 Weeks

Now
70 °F

Passing clouds.


Feels Like: 70 °F
Forecast: 50 / 77 °F
Wind: 3 mph from Northeast

Location: Calgary International

Current Time: Jun 26, 2016 at 6:26:24 PM

Latest Report: Jun 26, 2016 at 6:00 PM


Visibility: 40 mi

Pressure: 30.24 "Hg (26.73 "Hg at 1063m altitude)

Humidity: 43%

Dew Point: 46 °F

Location of CalgaryLocation

Past Weather in Calgary — Graph

°F

Calgary Temperature Yesterday

Maximum temperature yesterday: 68 °F (at 1:00 PM)
Minimum temperature yesterday: 50 °F (at 7:00 AM)
Average temperature yesterday: 58 °F

High & Low Weather Summary for the Past Weeks

 TemperatureHumidityPressure
High75 °F (Jun 20, 5:00 PM)88% (Jun 24, 7:00 PM)30.29 "Hg (Jun 24, 7:00 PM)
Low39 °F (Jun 15, 5:00 AM)15% (Jun 15, 2:00 PM)29.53 "Hg (Jun 14, 6:00 PM)
Average59 °F46%29.94 "Hg
* Reported Jun 11 5:00 PM — Jun 26 5:00 PM, Calgary, Weather by CustomWeather, © 2016

Note: Actual official high and low records may vary slightly from our data, if they occured in-between our weather recording intervals... More about our weather records

Advertising

Calgary Weather History for the Previous 24 Hours

Scroll right to see more
 ConditionsComfort  
Time TempWeatherWind HumidityBarometerVisibility
5:00 PM
Sun, Jun 26
70 °FScattered clouds.9 mph46%30.24 "Hg40 mi
4:00 PM70 °FScattered clouds.8 mph46%30.25 "Hg40 mi
3:00 PM68 °FScattered clouds.9 mph43%30.26 "Hg40 mi
2:00 PM64 °FBroken clouds.7 mph49%30.27 "Hg40 mi
1:00 PM63 °FSprinkles. Partly sunny.14 mph56%30.28 "Hg40 mi
12:00 PM57 °FSprinkles. Mostly cloudy.9 mph72%30.29 "Hg30 mi
11:00 AM57 °FSprinkles. Mostly cloudy.8 mph72%30.29 "Hg20 mi
10:00 AM57 °FSprinkles. Mostly cloudy.6 mph77%30.28 "Hg30 mi
9:00 AM55 °FSprinkles. Mostly cloudy.9 mph82%30.25 "Hg15 mi
8:00 AM55 °FSprinkles. Mostly cloudy.10 mph77%30.23 "Hg20 mi
7:00 AM55 °FSprinkles. Overcast.10 mph72%30.21 "Hg30 mi
6:50 AM55 °FSprinkles. Mostly cloudy.9 mph72%30.21 "Hg30 mi
6:00 AM55 °FOvercast.8 mph72%30.19 "Hg30 mi
5:00 AM55 °FOvercast.13 mph72%30.16 "Hg15 mi
4:00 AM55 °FPassing clouds.14 mph77%30.16 "Hg15 mi
3:00 AM55 °FSprinkles. Passing clouds.13 mph77%30.15 "Hg15 mi
2:00 AM57 °FSprinkles. Passing clouds.12 mph72%30.13 "Hg15 mi
1:01 AM57 °FSprinkles. Passing clouds.9 mph72%30.10 "Hg15 mi
12:00 AM57 °FSprinkles. Mostly cloudy.10 mph72%30.11 "Hg10 mi
11:00 PM
Sat, Jun 25
55 °FSprinkles. Passing clouds.13 mph88%30.11 "Hg15 mi
10:00 PM57 °FSprinkles. Mostly cloudy.16 mph77%30.12 "Hg15 mi
9:00 PM63 °FSprinkles. Partly sunny.3 mph64%30.08 "Hg20 mi
8:00 PM63 °FSprinkles. Partly sunny.5 mph64%30.08 "Hg20 mi
7:00 PM61 °FSprinkles. More clouds than sun.5 mph68%30.06 "Hg30 mi
6:00 PM63 °FMostly cloudy.20 mph59%30.05 "Hg15 mi
Weather by CustomWeather, © 2016

See weather overviewHow to use our weather pages